TimeEDT,TemperatureF,Dew PointF,Humidity,Sea Level PressureIn,VisibilityMPH,Wind Direction,Wind SpeedMPH,Gust SpeedMPH,PrecipitationIn,Events,Conditions,WindDirDegrees,DateUTC
12:05 AM,33.1,24.1,70,29.93,10.0,WNW,11.5,-,N/A,,Overcast,300,2013-03-27 04:05:00
12:53 AM,32.0,23.0,69,29.97,10.0,WNW,9.2,-,N/A,,Overcast,290,2013-03-27 04:53:00
1:53 AM,32.0,21.0,64,29.97,10.0,West,9.2,-,N/A,,Overcast,280,2013-03-27 05:53:00
2:53 AM,30.9,21.0,67,29.96,10.0,West,9.2,-,N/A,,Overcast,280,2013-03-27 06:53:00
3:53 AM,30.0,19.9,66,29.96,10.0,WNW,12.7,-,N/A,,Mostly Cloudy,290,2013-03-27 07:53:00
4:53 AM,28.9,19.9,69,29.96,10.0,West,11.5,-,N/A,,Mostly Cloudy,280,2013-03-27 08:53:00
5:15 AM,28.9,19.9,69,29.91,10.0,West,12.7,-,N/A,,Mostly Cloudy,280,2013-03-27 09:15:00
5:53 AM,28.9,21.0,72,29.97,10.0,WNW,9.2,-,N/A,,Overcast,290,2013-03-27 09:53:00
6:08 AM,28.9,21.0,72,29.93,10.0,WNW,11.5,-,N/A,,Overcast,300,2013-03-27 10:08:00
6:53 AM,28.9,21.9,75,29.99,10.0,WNW,12.7,-,N/A,,Overcast,290,2013-03-27 10:53:00
7:53 AM,30.0,23.0,75,30.01,5.0,West,11.5,-,0.00,Snow,Light Snow,280,2013-03-27 11:53:00
8:39 AM,30.0,23.0,75,29.96,2.5,WNW,13.8,-,0.00,Snow,Light Snow,290,2013-03-27 12:39:00
8:46 AM,30.0,24.1,79,29.97,3.0,WNW,10.4,19.6,0.00,Snow,Light Snow,300,2013-03-27 12:46:00
8:53 AM,30.0,24.1,79,30.02,5.0,WNW,12.7,-,0.00,,Haze,300,2013-03-27 12:53:00
9:34 AM,32.0,24.1,73,29.97,2.5,WNW,11.5,-,0.00,Snow,Light Snow,300,2013-03-27 13:34:00
9:53 AM,30.9,24.1,76,30.03,3.0,WNW,15.0,20.7,0.00,Snow,Light Snow,300,2013-03-27 13:53:00
10:53 AM,32.0,24.1,73,30.03,6.0,West,15.0,20.7,0.00,,Haze,280,2013-03-27 14:53:00
11:00 AM,33.1,25.0,72,29.98,1.2,West,12.7,-,0.00,Snow,Light Snow,280,2013-03-27 15:00:00
11:08 AM,32.0,25.0,75,29.98,0.5,WNW,13.8,-,0.00,Snow,Snow,300,2013-03-27 15:08:00
11:17 AM,33.1,25.0,72,29.98,2.0,WNW,13.8,-,0.00,Snow,Light Snow,290,2013-03-27 15:17:00
11:25 AM,33.1,24.1,70,29.98,6.0,West,9.2,-,0.00,Snow,Light Snow,280,2013-03-27 15:25:00
11:53 AM,33.1,24.1,70,30.04,10.0,West,11.5,20.7,0.00,,Overcast,280,2013-03-27 15:53:00
12:53 PM,34.0,23.0,64,30.04,9.0,WNW,10.4,-,0.00,,Overcast,290,2013-03-27 16:53:00
1:13 PM,34.0,24.1,67,29.99,2.0,WNW,11.5,19.6,0.00,Snow,Light Snow,290,2013-03-27 17:13:00
1:20 PM,33.1,25.0,72,29.99,0.8,WNW,10.4,19.6,0.00,Snow,Light Snow,290,2013-03-27 17:20:00
1:28 PM,34.0,25.0,70,29.99,2.5,West,9.2,-,0.00,Snow,Light Snow,270,2013-03-27 17:28:00
1:35 PM,34.0,25.0,70,29.99,7.0,WNW,10.4,-,0.00,Snow,Light Snow,290,2013-03-27 17:35:00
1:53 PM,35.1,23.0,61,30.04,10.0,WNW,15.0,19.6,0.00,,Overcast,290,2013-03-27 17:53:00
2:53 PM,35.1,23.0,61,30.04,10.0,WNW,15.0,24.2,N/A,,Overcast,290,2013-03-27 18:53:00
3:14 PM,35.1,25.0,67,29.99,1.5,WNW,17.3,-,0.00,Snow,Light Snow,290,2013-03-27 19:14:00
3:23 PM,33.1,27.0,78,29.99,0.5,WNW,11.5,-,0.00,Snow,Snow,300,2013-03-27 19:23:00
3:33 PM,33.1,27.0,78,29.99,1.5,NW,9.2,-,0.00,Snow,Light Snow,320,2013-03-27 19:33:00
3:39 PM,34.0,27.0,75,29.98,3.0,NW,4.6,-,0.00,Snow,Light Snow,310,2013-03-27 19:39:00
3:53 PM,35.1,25.0,67,30.04,9.0,WNW,13.8,-,0.00,,Overcast,300,2013-03-27 19:53:00
4:53 PM,35.1,24.1,64,30.04,8.0,WNW,15.0,-,0.00,Snow,Light Snow,300,2013-03-27 20:53:00
5:53 PM,35.1,23.0,61,30.06,8.0,WNW,16.1,-,0.00,,Overcast,300,2013-03-27 21:53:00
6:19 PM,35.1,24.1,64,30.00,10.0,WNW,15.0,-,0.00,,Overcast,290,2013-03-27 22:19:00
6:53 PM,34.0,23.0,64,30.07,10.0,WNW,13.8,20.7,0.00,,Overcast,300,2013-03-27 22:53:00
7:24 PM,34.0,24.1,67,30.02,10.0,WNW,13.8,-,N/A,,Overcast,300,2013-03-27 23:24:00
7:44 PM,33.1,24.1,70,30.02,5.0,West,6.9,-,0.00,Snow,Light Snow,280,2013-03-27 23:44:00
7:53 PM,33.1,25.0,72,30.08,4.0,West,8.1,-,0.00,Snow,Light Snow,280,2013-03-27 23:53:00
8:35 PM,32.0,25.0,75,30.02,8.0,West,6.9,-,0.00,,Overcast,270,2013-03-28 00:35:00
8:53 PM,32.0,25.0,75,30.08,5.0,West,11.5,-,0.00,Snow,Light Snow,280,2013-03-28 00:53:00
9:36 PM,32.0,26.1,79,30.03,3.0,West,10.4,-,0.00,Snow,Light Snow,280,2013-03-28 01:36:00
9:53 PM,32.0,26.1,79,30.09,3.0,West,10.4,-,0.00,Snow,Light Snow,280,2013-03-28 01:53:00
10:00 PM,32.0,26.1,79,30.03,3.0,West,11.5,-,0.00,Snow,Light Snow,280,2013-03-28 02:00:00
10:28 PM,32.0,26.1,79,30.02,2.0,West,8.1,-,0.00,Snow,Light Snow,280,2013-03-28 02:28:00
10:35 PM,32.0,26.1,79,30.02,2.5,WNW,9.2,-,0.00,Snow,Light Snow,290,2013-03-28 02:35:00
10:45 PM,32.0,26.1,79,30.02,4.0,West,8.1,-,0.00,Snow,Light Snow,280,2013-03-28 02:45:00
10:53 PM,32.0,26.1,79,30.07,4.0,West,9.2,-,0.00,Snow,Light Snow,260,2013-03-28 02:53:00
11:13 PM,32.0,27.0,82,30.01,1.8,West,8.1,-,0.00,Snow,Light Snow,280,2013-03-28 03:13:00
11:53 PM,32.0,27.0,82,30.06,1.5,West,5.8,-,0.00,Snow,Light Snow,270,2013-03-28 03:53:00